This demonstration page uses our WeatherBlox Daily Observations layout. Learn more.

Left ArrowRight Arrow

41.55636, -103.73856

Hourly Observations for October 25, 2021

Temp ( °F °C ) Dew Point ( °F °C ) Humidity (%) Winds ( mph kmh ) Pressure ( in mb ) Visibility ( mi km ) Precip ( " mm )
12:58 am 00:58 Clear 42 5.4 32 -0.1 68 68 S 8 13 29.94 1014 10 16 0.00 0.00
1:58 am 01:58 Clear 46 7.7 33 0.6 61 61 SSW 22 35 29.90 1012 10 16 0.00 0.00
2:58 am 02:58 Mostly Clear 47 8.6 33 0.4 57 57 SSW 20 31 29.88 1012 10 16 0.00 0.00
3:58 am 03:58 Clear 47 8.3 32 0.2 57 57 SSW 30 48 29.85 1011 10 16 0.00 0.00
4:58 am 04:58 Mostly Clear 46 7.6 31 -0.4 57 57 SSW 25 41 29.87 1011 10 16 0.00 0.00
5:58 am 05:58 Mostly Cloudy 48 8.8 29 -1.4 49 49 SSW 25 41 29.85 1011 10 16 0.00 0.00
6:58 am 06:58 Mostly Clear 48 8.8 29 -1.6 48 48 S 32 52 29.88 1012 10 16 0.00 0.00
7:58 am 07:58 Mostly Sunny 46 7.6 30 -1.3 54 54 S 31 50 29.87 1011 10 16 0.00 0.00
8:58 am 08:58 Mostly Sunny 48 8.8 30 -0.9 51 51 S 35 56 29.86 1011 10 16 0.00 0.00
9:58 am 09:58 Sunny 51 10.8 32 0.1 48 48 S 14 22 29.87 1011 10 16 0.00 0.00
10:58 am 10:58 Sunny 54 12.2 32 0.1 44 44 S 24 39 29.83 1010 10 16 0.00 0.00
11:58 am 11:58 Sunny 54 12.2 34 0.9 46 46 SSW 5 7 29.83 1010 10 16 0.00 0.00
12:58 pm 12:58 Sunny 59 14.8 34 0.9 39 39 Calm 29.79 1009 10 16 0.00 0.00
1:58 pm 13:58 Sunny 62 16.6 33 0.5 34 34 SSE 6 9 29.74 1007 10 16 0.00 0.00
2:58 pm 14:58 Sunny 64 18 33 0.7 31 31 SSE 14 22 29.70 1006 10 16 0.00 0.00
3:58 pm 15:58 Sunny 66 18.7 33 0.8 30 30 SSE 9 15 29.67 1005 10 16 0.00 0.00
4:58 pm 16:58 Sunny 65 18.1 34 1.2 32 32 SSE 9 15 29.66 1005 10 16 0.00 0.00
5:58 pm 17:58 Sunny 61 16 36 2 39 39 SSE 10 17 29.68 1005 10 16 0.00 0.00
6:58 pm 18:58 Clear 58 14.7 37 2.8 45 45 S 24 39 29.64 1004 10 16 0.00 0.00
7:58 pm 19:58 Clear 57 13.9 35 1.9 44 44 S 31 50 29.62 1003 10 16 0.00 0.00
8:58 pm 20:58 Clear 57 13.8 35 1.7 44 44 S 30 48 29.62 1003 10 16 0.00 0.00
9:58 pm 21:58 Clear 56 13.3 37 3 50 50 S 38 61 29.58 1002 10 16 0.00 0.00
10:58 pm 22:58 Clear 54 12 39 4 58 58 S 39 63 29.57 1001 10 16 0.00 0.00
11:58 pm 23:58 Clear 50 9.9 40 4.2 68 68 ENE 14 22 29.61 1003 10 16 0.00 0.00

Powered by AerisWeather